TimeMDT,TemperatureF,Dew PointF,Humidity,Sea Level PressureIn,VisibilityMPH,Wind Direction,Wind SpeedMPH,Gust SpeedMPH,PrecipitationIn,Events,Conditions,WindDirDegrees,DateUTC
12:53 AM,69.1,62.1,78,29.87,10.0,NE,12.7,-,N/A,,Clear,40,2013-07-13 06:53:00
1:53 AM,68.0,63.0,84,29.86,10.0,NE,10.4,-,N/A,,Clear,50,2013-07-13 07:53:00
2:53 AM,66.9,64.0,90,29.86,10.0,East,5.8,-,N/A,,Clear,100,2013-07-13 08:53:00
3:53 AM,66.9,63.0,87,29.86,10.0,Calm,Calm,-,N/A,,Clear,0,2013-07-13 09:53:00
4:53 AM,66.9,64.0,90,29.88,10.0,West,5.8,-,N/A,,Clear,270,2013-07-13 10:53:00
5:53 AM,66.9,63.0,87,29.90,10.0,Calm,Calm,-,N/A,,Clear,0,2013-07-13 11:53:00
6:53 AM,69.1,64.0,84,29.91,10.0,WNW,4.6,-,N/A,,Clear,300,2013-07-13 12:53:00
7:53 AM,71.1,64.0,78,29.92,10.0,WNW,3.5,-,N/A,,Clear,290,2013-07-13 13:53:00
8:44 AM,71.6,64.4,78,30.10,10.0,WNW,4.6,-,0.00,Rain-Thunderstorm,Light Rain,300,2013-07-13 14:44:00
8:53 AM,72.0,64.0,76,29.96,10.0,WNW,8.1,-,0.00,,Mostly Cloudy,300,2013-07-13 14:53:00
9:23 AM,73.4,62.6,69,30.09,10.0,WNW,5.8,-,0.00,Thunderstorm,Mostly Cloudy,300,2013-07-13 15:23:00
9:38 AM,73.4,64.4,73,30.09,10.0,NW,4.6,-,0.00,,Scattered Clouds,310,2013-07-13 15:38:00
9:53 AM,75.0,64.0,69,29.94,10.0,WNW,5.8,-,0.00,,Partly Cloudy,300,2013-07-13 15:53:00
10:53 AM,78.1,64.0,62,29.94,10.0,NNW,4.6,-,N/A,,Clear,330,2013-07-13 16:53:00
11:53 AM,81.0,62.1,52,29.93,10.0,NW,3.5,-,N/A,,Partly Cloudy,320,2013-07-13 17:53:00
12:53 PM,86.0,60.1,41,29.91,10.0,WNW,6.9,-,N/A,,Clear,300,2013-07-13 18:53:00
1:53 PM,90.0,55.9,31,29.88,10.0,NNE,6.9,-,N/A,,Unknown,20,2013-07-13 19:53:00
2:53 PM,91.9,57.0,31,29.86,10.0,ENE,10.4,-,N/A,,Clear,70,2013-07-13 20:53:00
3:53 PM,91.0,57.9,33,29.87,10.0,East,10.4,-,N/A,,Clear,100,2013-07-13 21:53:00
4:53 PM,91.0,61.0,36,29.86,10.0,East,10.4,-,N/A,,Clear,80,2013-07-13 22:53:00
5:53 PM,87.1,57.9,37,29.87,10.0,ENE,8.1,-,N/A,,Clear,70,2013-07-13 23:53:00
6:53 PM,84.0,60.1,44,29.89,10.0,Calm,Calm,-,N/A,,Clear,0,2013-07-14 00:53:00
7:53 PM,80.1,66.0,62,29.87,10.0,Calm,Calm,-,0.00,,Scattered Clouds,0,2013-07-14 01:53:00
8:53 PM,78.1,68.0,71,29.90,10.0,NNW,6.9,-,N/A,,Clear,330,2013-07-14 02:53:00
9:53 PM,71.1,62.1,73,30.00,10.0,West,21.9,31.1,0.00,Rain-Thunderstorm,Light Rain,270,2013-07-14 03:53:00
10:23 PM,69.8,60.8,73,30.13,10.0,West,23.0,31.1,0.00,,Clear,260,2013-07-14 04:23:00
10:53 PM,70.0,60.1,71,29.96,10.0,West,23.0,31.1,0.00,,Mostly Cloudy,270,2013-07-14 04:53:00
11:53 PM,69.1,60.1,73,29.93,10.0,WNW,12.7,-,N/A,,Clear,290,2013-07-14 05:53:00